Location: Madden
(51.3728°N, 114.3297°W)
Time: 23:16:11
(UTC+00:00)

RS-44 - Pass Details

Date: 11 December 2023
Orbit: 1175 x 1510 km, 82.5° (Epoch: 26 February)

Event Time Altitude Azimuth Distance (km) Brightness Sun altitude
Rises 04:02:04 0° 350° (N) 4,144 ? -41.2°
Reaches altitude 10° 04:04:55 10° 356° (N) 3,147 ? -41.6°
Enters shadow 04:05:45 14° 359° (N) 2,869 ? -41.7°
